QIANFAN-10 (60388 NORAD) Tracking and Keplerian Element Data

This shows tracking and keplerian element data for the satellite.

Feedback or suggestion? Click here.




ElementValue
Catalog60388
NameQIANFAN-10
Epoch Orbit963
Epoch Day286.85850146
Epoch Year2024
RAAN343.4199
Inclination88.9939
Eccentricity0.0016131
Argument of Perigee12.8781
Mean Anonmoly347.282
Mean Motion14.23861529
Decay Rate1.999E-05
L11 60388U 24140K 24286.85850146 .00001999 00000+0 86608-3 0 9993
L22 60388 88.9939 343.4199 0016131 12.8781 347.2820 14.23861529 9630



Live tracking and technical data element details for QIANFAN-10 (NORAD 60388). QIANFAN-10 can be tracked NOW for your location showing map with azimuth and elevation plus other details from your city location.







IsCatalogInMostPopularTable: catalog: 60388, numindb: 4
Update: records affected: 1



GetName: 60388 QIANFAN-10

Hit Count: updated at: Fri, 06 Dec 2024 10:28:23 GMT